FW0532 Weather Reports


Display with metric or nautical units.
time (UTC)temp
F
wind
direction
speed
MPH
gust
MPH
rain 1hr
in
rain 24hr
in
rain mn
in
humidity
%
barometer
mb
20260503003808 41 321 0.0 2.0 0.00 0.00 0.00 70 1015.9
20260503003308 41 321 0.0 0.0 0.00 0.00 0.00 68 1015.9
20260503002808 42 321 0.0 0.0 0.00 0.00 0.00 67 1015.9
20260503002308 43 321 0.0 0.0 0.00 0.00 0.00 65 1016.0
20260503001807 44 321 0.0 4.0 0.00 0.00 0.00 62 1016.0
20260503001308 45 321 0.0 4.0 0.00 0.00 0.00 60 1016.0
20260503000307 46 343 1.0 5.0 0.00 0.00 0.00 53 1016.1
20260502235807 46 11 0.0 7.0 0.00 0.00 0.00 52 1015.9
20260502235307 46 340 4.0 12.0 0.00 0.00 0.00 52 1015.9
20260502234806 47 336 1.0 12.0 0.00 0.00 0.00 51 1016.0
20260502234306 47 13 2.0 7.0 0.00 0.00 0.00 53 1016.0
20260502233806 48 360 2.0 7.0 0.00 0.00 0.00 49 1015.9
20260502233306 48 5 6.0 10.0 0.00 0.00 0.00 49 1015.9
20260502232805 48 350 1.0 10.0 0.00 0.00 0.00 50 1015.9
20260502231806 47 30 0.0 9.0 0.00 0.00 0.00 51 1016.0
20260502230805 47 329 0.0 10.0 0.00 0.00 0.00 52 1016.1
20260502230305 47 28 5.0 10.0 0.00 0.00 0.00 51 1016.1
20260502225805 48 227 3.0 10.0 0.00 0.00 0.00 52 1015.9
20260502225305 48 349 3.0 10.0 0.00 0.00 0.00 52 1015.9
20260502224804 48 346 3.0 10.0 0.00 0.00 0.00 54 1016.0
20260502224305 48 13 4.0 10.0 0.00 0.00 0.00 51 1015.9
20260502223304 48 345 5.0 9.0 0.00 0.00 0.00 50 1015.9
20260502222804 48 324 2.0 7.0 0.00 0.00 0.00 50 1015.9
20260502222305 48 223 1.0 10.0 0.00 0.00 0.00 54 1015.9
20260502221804 48 360 4.0 11.0 0.00 0.00 0.00 51 1015.7
20260502221303 48 326 2.0 11.0 0.00 0.00 0.00 51 1015.8
20260502220803 48 324 5.0 11.0 0.00 0.00 0.00 51 1015.8
20260502215803 48 5 0.0 11.0 0.00 0.00 0.00 54 1015.7
20260502215304 48 327 3.0 11.0 0.00 0.00 0.00 53 1015.8
20260502214803 48 306 7.0 11.0 0.00 0.00 0.00 55 1015.7
20260502214303 48 350 6.0 11.0 0.00 0.00 0.00 53 1015.7
20260502213802 48 13 1.0 10.0 0.00 0.00 0.00 52 1015.6
20260502213302 49 342 2.0 9.0 0.00 0.00 0.00 51 1015.7
20260502212832 48 9 4.0 12.0 0.00 0.00 0.00 52 1015.6
20260502212332 48 313 2.0 12.0 0.00 0.00 0.00 48 1015.5
20260502211832 48 323 0.0 9.0 0.00 0.00 0.00 49 1015.4
20260502211332 48 341 1.0 12.0 0.00 0.00 0.00 51 1015.4
20260502210831 48 349 5.0 14.0 0.00 0.00 0.00 49 1015.4
20260502210331 49 355 7.0 14.0 0.00 0.00 0.00 51 1015.5
20260502205331 49 347 7.0 11.0 0.00 0.00 0.00 49 1015.6
20260502204331 49 5 5.0 13.0 0.00 0.00 0.00 48 1015.7
20260502202830 50 22 4.0 12.0 0.00 0.00 0.00 57 1015.8
20260502202330 49 331 10.0 14.0 0.00 0.00 0.00 52 1015.8
20260502201330 50 340 7.0 11.0 0.00 0.00 0.00 48 1016.0
20260502200830 49 319 5.0 11.0 0.00 0.00 0.00 46 1015.8
20260502200330 50 341 5.0 11.0 0.00 0.00 0.00 50 1015.9
20260502195829 50 327 2.0 15.0 0.00 0.00 0.00 49 1016.1
20260502195329 49 345 10.0 15.0 0.00 0.00 0.00 49 1016.0
20260502194329 49 333 6.0 16.0 0.00 0.00 0.00 48 1015.9
20260502193329 49 305 2.0 11.0 0.00 0.00 0.00 58 1016.0
20260502192829 50 5 3.0 13.0 0.00 0.00 0.00 50 1016.2
20260502192329 50 236 1.0 16.0 0.00 0.00 0.00 48 1016.2
20260502191828 50 23 12.0 16.0 0.00 0.00 0.00 50 1016.3
20260502191328 50 39 6.0 15.0 0.00 0.00 0.00 48 1016.2
20260502190327 52 22 4.0 9.0 0.00 0.00 0.00 44 1016.2
20260502185828 52 5 7.0 15.0 0.00 0.00 0.00 49 1016.2
20260502184827 50 355 10.0 13.0 0.00 0.00 0.00 53 1016.2
20260502183827 51 32 4.0 14.0 0.00 0.00 0.00 47 1016.3
20260502183327 51 327 6.0 14.0 0.00 0.00 0.00 50 1016.5
20260502182826 51 26 2.0 13.0 0.00 0.00 0.00 57 1016.5
20260502182326 50 336 6.0 13.0 0.00 0.00 0.00 48 1016.4
20260502181826 49 317 4.0 13.0 0.00 0.00 0.00 57 1016.4
20260502181326 50 23 9.0 13.0 0.00 0.00 0.00 47 1016.4
20260502180827 50 355 1.0 10.0 0.00 0.00 0.00 52 1016.3
20260502180326 50 5 2.0 10.0 0.00 0.00 0.00 47 1016.4
20260502164324 48 316 6.0 7.0 0.00 0.00 0.00 52 1016.8
20260502163824 49 289 2.0 7.0 0.00 0.00 0.00 52 1016.9
20260502163323 50 329 5.0 11.0 0.00 0.00 0.00 56 1017.1
20260502162823 49 322 2.0 11.0 0.00 0.00 0.00 52 1017.2
20260502161822 49 302 7.0 16.0 0.00 0.00 0.00 55 1017.2
20260502161322 49 360 13.0 16.0 0.00 0.00 0.00 54 1017.2
20260502160822 48 10 1.0 11.0 0.00 0.00 0.00 61 1017.2
20260502160322 48 320 6.0 14.0 0.00 0.00 0.00 56 1017.1
20260502152321 47 338 5.0 12.0 0.00 0.00 0.00 60 1017.1
20260502151821 47 5 1.0 12.0 0.00 0.00 0.00 59 1017.3
20260502150820 47 309 4.0 14.0 0.00 0.01 0.00 59 1017.3
20260502150320 47 330 3.0 14.0 0.00 0.01 0.00 59 1017.3
20260502123816 39 331 2.0 6.0 0.00 0.08 0.00 71 1016.4
20260502123316 39 306 2.0 6.0 0.00 0.08 0.00 74 1016.4
20260502122815 38 360 2.0 5.0 0.00 0.08 0.00 73 1016.5
20260502122315 38 323 1.0 6.0 0.00 0.08 0.00 74 1016.5
20260502121816 38 25 2.0 6.0 0.00 0.09 0.00 73 1016.4
20260502121315 37 324 1.0 6.0 0.00 0.09 0.00 75 1016.3
20260502120815 37 343 3.0 6.0 0.00 0.10 0.00 75 1016.3
20260502120315 37 333 3.0 6.0 0.00 0.10 0.00 75 1016.2
20260502115314 36 311 6.0 7.0 0.00 0.10 0.00 75 1016.2
20260502114815 36 360 4.0 7.0 0.00 0.10 0.00 76 1016.1
20260502114314 36 355 0.0 7.0 0.00 0.10 0.00 77 1016.0
20260502113814 36 334 3.0 5.0 0.00 0.10 0.00 77 1016.0
20260502113314 35 5 0.0 4.0 0.00 0.10 0.00 78 1016.0
20260502112814 35 5 0.0 4.0 0.00 0.10 0.00 78 1016.0
20260502112313 35 313 1.0 4.0 0.00 0.11 0.00 80 1016.0
20260502111813 35 313 0.0 4.0 0.00 0.11 0.00 80 1015.9
20260502110813 34 338 0.0 0.0 0.00 0.11 0.00 81 1015.8
20260502110313 34 338 0.0 0.0 0.00 0.11 0.00 82 1015.8
20260502105813 34 338 0.0 4.0 0.00 0.11 0.00 82 1015.9
20260502105313 34 320 0.0 4.0 0.00 0.11 0.00 84 1015.9
20260502104812 34 350 0.0 3.0 0.00 0.11 0.00 84 1015.7
20260502104312 33 355 2.0 2.0 0.00 0.11 0.00 85 1015.8
20260502103812 34 355 0.0 2.0 0.00 0.11 0.00 85 1015.8
20260502102812 34 15 0.0 0.0 0.00 0.11 0.00 85 1015.7
20260502102311 34 54 0.0 2.0 0.00 0.11 0.00 85 1015.6
20260502101811 34 58 0.0 2.0 0.00 0.11 0.00 85 1015.6
20260502101311 34 355 0.0 1.0 0.00 0.11 0.00 86 1015.6
20260502100811 34 355 0.0 0.0 0.00 0.11 0.00 85 1015.6
20260502100311 34 355 0.0 0.0 0.00 0.11 0.00 85 1015.7
20260502091309 37 5 0.0 3.0 0.00 0.11 0.00 78 1015.7
20260502090809 38 5 0.0 4.0 0.00 0.11 0.00 77 1015.8
20260502090309 38 355 2.0 5.0 0.00 0.11 0.00 76 1015.8
20260502071305 37 344 2.0 3.0 0.00 0.11 0.00 83 1015.4
20260502070806 37 273 0.0 0.0 0.00 0.11 0.00 84 1015.4
20260502070305 38 273 0.0 2.0 0.00 0.11 0.00 82 1015.6
20260502065805 38 273 0.0 2.0 0.00 0.11 0.00 82 1015.5
20260502065306 37 273 0.0 1.0 0.00 0.11 0.00 84 1015.5
20260502064805 37 273 0.0 0.0 0.00 0.11 0.00 83 1015.7
20260502064305 37 273 0.0 0.0 0.00 0.11 0.00 84 1015.7
20260502063805 37 273 0.0 0.0 0.00 0.11 0.00 84 1015.7
20260502063304 38 273 0.0 0.0 0.00 0.11 0.00 84 1015.7
20260502062306 39 273 0.0 0.0 0.00 0.11 0.00 81 1015.8
20260502060804 40 273 0.0 0.0 0.00 0.11 0.00 79 1015.7
20260502055305 40 273 0.0 3.0 0.00 0.11 0.00 78 1015.8
20260502054803 40 273 1.0 3.0 0.00 0.11 0.00 78 1015.9
20260502054303 39 315 1.0 1.0 0.00 0.11 0.00 81 1015.8
20260502053803 39 315 0.0 1.0 0.00 0.11 0.00 82 1015.7
20260502053302 39 315 0.0 0.0 0.00 0.11 0.00 84 1015.8
20260502052803 39 315 0.0 1.0 0.00 0.11 0.00 83 1015.8
20260502052305 38 315 0.0 1.0 0.00 0.11 0.00 83 1015.8
20260502051802 38 315 0.0 0.0 0.00 0.11 0.00 83 1015.8
20260502050302 39 315 0.0 3.0 0.00 0.11 0.00 78 1015.9
20260502045802 38 350 0.0 3.0 0.00 0.11 0.00 79 1015.7
20260502044801 38 350 0.0 3.0 0.00 0.11 0.00 80 1015.7
20260502043801 39 329 0.0 2.0 0.00 0.11 0.00 78 1015.8
20260502042801 39 329 0.0 1.0 0.00 0.11 0.00 78 1015.7
20260502042301 39 329 0.0 1.0 0.00 0.11 0.00 79 1015.8
20260502041330 38 329 0.0 2.0 0.00 0.11 0.00 80 1015.8
20260502040830 39 329 0.0 3.0 0.00 0.11 0.00 78 1015.7
20260502040330 40 329 0.0 3.0 0.00 0.11 0.00 75 1015.8
20260502035830 40 329 0.0 3.0 0.00 0.11 0.11 75 1015.9
20260502035330 41 9 0.0 3.0 0.00 0.11 0.11 74 1016.0
20260502034329 40 294 0.0 5.0 0.00 0.11 0.11 74 1015.8
20260502033829 41 328 0.0 5.0 0.00 0.11 0.11 74 1015.9
20260502033329 41 292 0.0 6.0 0.00 0.11 0.11 74 1015.8
20260502032829 40 321 0.0 6.0 0.00 0.11 0.11 76 1015.7
20260502032329 39 21 2.0 5.0 0.00 0.11 0.11 80 1015.7
20260502031328 38 346 1.0 3.0 0.00 0.11 0.11 83 1015.8
20260502030828 38 309 1.0 1.0 0.00 0.11 0.11 85 1015.8
20260502030328 38 309 0.0 0.0 0.00 0.11 0.11 85 1015.8
20260502025828 38 309 0.0 0.0 0.00 0.11 0.11 86 1015.9
20260502025328 38 309 0.0 0.0 0.00 0.11 0.11 87 1015.8
20260502024827 38 309 0.0 0.0 0.00 0.11 0.11 86 1015.8
20260502024328 38 309 0.0 0.0 0.00 0.11 0.11 86 1015.9
20260502023827 39 309 0.0 0.0 0.00 0.11 0.11 86 1015.7
20260502023327 39 309 0.0 0.0 0.00 0.11 0.11 86 1015.6
20260502022827 39 309 0.0 0.0 0.00 0.11 0.11 85 1015.6
20260502022327 40 309 0.0 1.0 0.00 0.11 0.11 86 1015.7
20260502021827 40 309 0.0 2.0 0.00 0.11 0.11 85 1015.7
20260502021327 40 309 0.0 2.0 0.00 0.11 0.11 83 1015.5
20260502020826 40 311 0.0 2.0 0.00 0.11 0.11 85 1015.4
20260502020326 41 311 0.0 4.0 0.00 0.11 0.11 82 1015.3
20260502014826 41 18 1.0 7.0 0.00 0.11 0.11 86 1014.8
20260502014325 40 334 0.0 2.0 0.00 0.11 0.11 89 1014.7
20260502013825 39 327 0.0 0.0 0.00 0.11 0.11 89 1014.6
20260502013325 39 327 0.0 0.0 0.00 0.11 0.11 88 1014.5
20260502012325 40 327 0.0 0.0 0.00 0.11 0.11 86 1014.6
20260502011825 40 327 0.0 0.0 0.00 0.11 0.11 85 1014.4
20260502011325 40 327 0.0 0.0 0.00 0.11 0.11 85 1014.3
20260502010824 40 327 0.0 0.0 0.00 0.11 0.11 85 1014.3
20260502005824 41 327 0.0 1.0 0.00 0.11 0.11 83 1014.2
20260502004824 42 327 0.0 1.0 0.00 0.11 0.11 81 1014.0
20260502004324 43 327 0.0 1.0 0.00 0.11 0.11 79 1014.1